Location: Volkssternwarte_EN
(51.3230°N, 7.4010°E)
Time: 07:40:58
(UTC+01:00)

BlueWalker 3 - Pass Details

Date: 01 December 2022
Orbit: 499 x 517 km, 53.2° (Epoch: 28 January)

Event Time Altitude Azimuth Distance (km) Brightness Sun altitude
Rises 18:49:56 0° 275° (W) 2,630 7.0 -21.6°
Reaches altitude 10° 18:52:10 10° 279° (W) 1,739 5.7 -21.9°
Enters shadow 18:55:53 63° 342° (NNW) 573 2.1 -22.5°
